Weather History for Beckley, WV

Change the Weather History Date:

Tuesday, November 13, 2012

  Actual Average Record
Temperature  
Mean Temperature 35 °F 45 °F  
Max Temperature 42 °F 54 °F 78 °F (1913)
Min Temperature 27 °F 36 °F 12 °F (1986)
Degree Days  
Heating Degree Days 30 20  
Month to date heating degree days 302 235  
Since 1 July heating degree days 830 741  
Cooling Degree Days 0 0  
Month to date cooling degree days 0 0  
Year to date cooling degree days 761 556  
Moisture  
Dew Point 25 °F    
Average Humidity 69    
Maximum Humidity 92    
Minimum Humidity 45    
Precipitation  
Precipitation 0.03 in 0.09 in 0.79 in (2008)
Month to date precipitation 0.51 1.24  
Year to date precipitation 41.01 36.48  
Snow  
Snow T in - - ()
Month to date snowfall T  
Since 1 September snowfall 22.9  
Snow Depth 0.00 in    
Sea Level Pressure  
Sea Level Pressure 30.42 in    
Wind  
Wind Speed 6 mph (NNW)    
Max Wind Speed 16 mph    
Max Gust Speed 21 mph    
Visibility 10 miles    
Events Rain    
T = Trace of Precipitation, MM = Missing Value Source: NWS Daily Summary

Daily Weather History Graph

Daily Weather History Graph

Search for Another Location

Airport:

Trip Planner

Search our weather history database for the weather conditions in past years. The results will help you decide how hot, cold, wet, or windy it might be!

Date:

Astronomy

Nov. 13, 2012 Rise Set
Actual Time 7:03 AM EST 5:14 PM EST
Civil Twilight 6:35 AM EST 5:42 PM EST
Nautical Twilight 6:03 AM EST 6:13 PM EST
Astronomical Twilight 5:32 AM EST 6:44 PM EST
Moon 6:39 AM EST (11/13) 5:06 PM EST (11/13)
Length of Visible Light 11h 06m
Length of Day
10h 11m
Waning Crescent, 0% of the Moon is Illuminated
Nov 13
Waning Crescent
Nov 13
New
Nov 20
First Quarter
Nov 28
Full
Dec 6
Last Quarter

Hourly Weather History & Observations

Time (EST) Temp. Windchill Dew Point Humidity Pressure Visibility Wind Dir Wind Speed Gust Speed Precip Events Conditions
12:51 AM 37.0 °F 31.6 °F 35.1 °F 93% 30.33 in 6.0 mi NNW 6.9 mph - 0.01 in Rain Light Rain
1:51 AM 36.0 °F 29.0 °F 34.0 °F 93% 30.32 in 6.0 mi NW 9.2 mph - 0.01 in Rain Light Rain
2:41 AM 33.8 °F 25.3 °F 28.4 °F 81% 30.33 in 10.0 mi North 11.5 mph - 0.01 in   Overcast
2:51 AM 33.1 °F 23.9 °F 28.0 °F 82% 30.35 in 10.0 mi NNW 12.7 mph - 0.01 in   Overcast
3:25 AM 33.8 °F 27.7 °F 28.4 °F 81% 30.34 in 10.0 mi North 6.9 mph - N/A   Overcast
3:51 AM 32.0 °F 23.6 °F 28.0 °F 85% 30.35 in 10.0 mi North 10.4 mph - N/A   Overcast
4:42 AM 30.2 °F 20.2 °F 26.6 °F 86% 30.34 in 10.0 mi North 12.7 mph - N/A   Overcast
4:51 AM 30.9 °F 22.8 °F 26.1 °F 82% 30.36 in 10.0 mi North 9.2 mph - N/A   Overcast
5:51 AM 30.9 °F 24.3 °F 27.0 °F 85% 30.38 in 10.0 mi NNW 6.9 mph - N/A   Overcast
6:51 AM 30.9 °F 24.3 °F 25.0 °F 79% 30.42 in 10.0 mi NNW 6.9 mph - N/A   Overcast
7:51 AM 30.9 °F 22.8 °F 24.1 °F 76% 30.44 in 10.0 mi NNW 9.2 mph - N/A   Mostly Cloudy
8:07 AM 30.2 °F 21.3 °F 24.8 °F 80% 30.39 in 10.0 mi NNW 10.4 mph - N/A   Scattered Clouds
8:51 AM 30.9 °F 23.5 °F 24.1 °F 76% 30.46 in 10.0 mi NNW 8.1 mph - N/A   Scattered Clouds
9:04 AM 30.2 °F 21.9 °F 24.8 °F 80% 30.40 in 10.0 mi North 9.2 mph - N/A   Mostly Cloudy
9:30 AM 32.0 °F 25.6 °F 24.8 °F 75% 30.40 in 10.0 mi North 6.9 mph - N/A   Scattered Clouds
9:51 AM 32.0 °F 23.6 °F 24.1 °F 73% 30.47 in 10.0 mi NNW 10.4 mph - N/A   Scattered Clouds
10:51 AM 35.1 °F 30.1 °F 24.1 °F 64% 30.47 in 10.0 mi North 5.8 mph - N/A   Clear
11:51 AM 37.0 °F 32.4 °F 23.0 °F 57% 30.45 in 10.0 mi North 5.8 mph - N/A   Clear
12:51 PM 39.0 °F - 23.0 °F 53% 30.43 in 10.0 mi Calm Calm - N/A   Clear
1:51 PM 39.9 °F 35.1 °F 23.0 °F 51% 30.41 in 10.0 mi NW 6.9 mph - N/A   Clear
2:51 PM 41.0 °F 35.2 °F 21.9 °F 47% 30.41 in 10.0 mi North 9.2 mph - N/A   Clear
3:51 PM 39.9 °F 33.9 °F 21.9 °F 49% 30.42 in 10.0 mi NW 9.2 mph - N/A   Clear
4:51 PM 37.9 °F 32.1 °F 21.9 °F 53% 30.44 in 10.0 mi NNW 8.1 mph - N/A   Clear
5:51 PM 36.0 °F 33.3 °F 21.9 °F 57% 30.45 in 10.0 mi North 3.5 mph - N/A   Clear
6:51 PM 34.0 °F 29.8 °F 21.9 °F 61% 30.47 in 10.0 mi North 4.6 mph - N/A   Clear
7:51 PM 34.0 °F 31.0 °F 21.9 °F 61% 30.49 in 10.0 mi NNE 3.5 mph - N/A   Clear
8:51 PM 30.9 °F - 21.9 °F 69% 30.51 in 10.0 mi Calm Calm - N/A   Clear
9:51 PM 28.0 °F - 21.9 °F 78% 30.52 in 10.0 mi Calm Calm - N/A   Clear
10:51 PM 28.9 °F - 21.9 °F 75% 30.51 in 10.0 mi Calm Calm - N/A   Clear
11:51 PM 28.0 °F - 21.0 °F 75% 30.49 in 10.0 mi Calm Calm - N/A   Clear